DELTA 2 R/B(1)

Last updated on Sun Aug 09 2026 00:02:09 GMT+0000 (Coordinated Universal Time)

1 20453U 90008B 26220.27706032 .00090414 00000+0 43767-3 0 9997 2 20453 35.5969 244.7114 0049532 245.3415 114.2165 15.79365004949915
UTC large
Height (km)
Speed (km/s)
/
Latitude / Longitude
Inclination (degrees)
Orbital Period (minutes)
Azimuth
Elevation
Range (km)
Doppler Factor

Next 0 passes for location: London (51.5072 / 0.1276)

No passes found over London.
DELTA 2 R/B(1)